Location: Molveno
(46.1500°N, 10.9667°E)
Time: 17:04:35
(UTC+00:00)

Cosmos 2322 - Pass Details

Date: 05 July 2020
Orbit: 841 x 854 km, 71.0° (Epoch: 10 August)

Event Time Altitude Azimuth Distance (km) Brightness Sun altitude
Rises 20:17:08 0° 191° (SSW) 3,408 6.5 -9.6°
Reaches altitude 10° 20:19:36 10° 188° (S) 2,477 5.8 -9.9°
Maximum altitude 20:25:10 58° 110° (ESE) 995 3.8 -10.5°
Drops below altitude 10° 20:30:46 10° 33° (NNE) 2,492 6.4 -11.1°
Sets 20:33:15 0° 30° (NNE) 3,431 7.2 -11.4°
